Soleil Laural Canyon Historical Data
 
Daily Summary for June 21, 2018 Units:  English    Metric   Both
Daily Weekly Monthly Yearly Custom

Warning: Division by zero in /homepages/45/d241404124/htdocs/soleilweather/WU-History-inc.php on line 1269
  Current: High: Low: Average:
Temperature: 72.8 °F 78.1 °F 72.0 °F 75.4 °F
Dew Point: 69.4 °F 71.1 °F 68.2 °F 69.7 °F
Humidity: 89% 90% 78% 83%
Wind Speed: 0.0mph 0.0mph 0.0mph 0mph
Wind Gust: 0.0mph 0.0mph - -
Wind Calm - - North
Pressure: 29.84 in 29.88 in 29.82 in -
Precipitation: 0.00 in      
Historical Graphs
 
 
Tabular Data for June 21, 2018
Time Temperature Dew Point Pressure Wind Wind Speed Wind Gust Humidity Rainfall Rate (Hourly) solar
00:04 78.1 °F 71.1 °F 29.88 in Calm     79% 0.00 in 0.00 W/m2
00:09 78.0 °F 71.0 °F 29.88 in Calm     79% 0.00 in 0.00 W/m2
00:14 77.9 °F 70.9 °F 29.88 in Calm     79% 0.00 in 0.00 W/m2
00:19 77.8 °F 71.1 °F 29.88 in Calm     80% 0.00 in 0.00 W/m2
00:24 77.6 °F 70.9 °F 29.88 in Calm     80% 0.00 in 0.00 W/m2
00:29 77.5 °F 70.8 °F 29.88 in Calm     80% 0.00 in 0.00 W/m2
00:34 77.4 °F 71.1 °F 29.87 in Calm     81% 0.00 in 0.00 W/m2
00:39 77.3 °F 71.0 °F 29.88 in Calm     81% 0.00 in 0.00 W/m2
00:44 77.1 °F 70.8 °F 29.87 in Calm     81% 0.00 in 0.00 W/m2
00:49 77.0 °F 71.1 °F 29.87 in Calm     82% 0.00 in 0.00 W/m2
00:54 77.0 °F 71.1 °F 29.87 in Calm     82% 0.00 in 0.00 W/m2
00:59 76.9 °F 71.0 °F 29.87 in Calm     82% 0.00 in 0.00 W/m2
01:04 76.9 °F 70.6 °F 29.86 in Calm     81% 0.00 in 0.00 W/m2
01:09 76.9 °F 71.0 °F 29.86 in Calm     82% 0.00 in 0.00 W/m2
01:14 77.0 °F 70.7 °F 29.86 in Calm     81% 0.00 in 0.00 W/m2
01:19 76.9 °F 70.6 °F 29.86 in Calm     81% 0.00 in 0.00 W/m2
01:24 76.9 °F 70.6 °F 29.86 in Calm     81% 0.00 in 0.00 W/m2
01:29 76.9 °F 70.6 °F 29.86 in Calm     81% 0.00 in 0.00 W/m2
01:34 76.8 °F 70.9 °F 29.86 in Calm     82% 0.00 in 0.00 W/m2
01:39 76.7 °F 70.8 °F 29.86 in Calm     82% 0.00 in 0.00 W/m2
01:44 76.5 °F 70.9 °F 29.86 in Calm     83% 0.00 in 0.00 W/m2
01:49 76.4 °F 70.5 °F 29.86 in Calm     82% 0.00 in 0.00 W/m2
01:54 76.5 °F 70.6 °F 29.86 in Calm     82% 0.00 in 0.00 W/m2
01:59 76.6 °F 70.3 °F 29.85 in Calm     81% 0.00 in 0.00 W/m2
02:04 76.6 °F 70.3 °F 29.85 in Calm     81% 0.00 in 0.00 W/m2
02:09 76.7 °F 70.4 °F 29.85 in Calm     81% 0.00 in 0.00 W/m2
02:14 76.7 °F 70.1 °F 29.85 in Calm     80% 0.00 in 0.00 W/m2
02:19 76.6 °F 70.3 °F 29.84 in Calm     81% 0.00 in 0.00 W/m2
02:24 76.4 °F 70.5 °F 29.84 in Calm     82% 0.00 in 0.00 W/m2
02:29 76.2 °F 70.3 °F 29.84 in Calm     82% 0.00 in 0.00 W/m2
02:34 76.2 °F 70.3 °F 29.84 in Calm     82% 0.00 in 0.00 W/m2
02:39 76.2 °F 70.3 °F 29.84 in Calm     82% 0.00 in 0.00 W/m2
02:44 76.1 °F 70.6 °F 29.84 in Calm     83% 0.00 in 0.00 W/m2
02:49 76.0 °F 70.5 °F 29.84 in Calm     83% 0.00 in 0.00 W/m2
02:54 75.8 °F 70.6 °F 29.84 in Calm     84% 0.00 in 0.00 W/m2
02:59 75.7 °F 70.2 °F 29.84 in Calm     83% 0.00 in 0.00 W/m2
03:04 75.7 °F 69.8 °F 29.84 in Calm     82% 0.00 in 0.00 W/m2
03:09 75.8 °F 69.9 °F 29.84 in Calm     82% 0.00 in 0.00 W/m2
03:14 75.8 °F 69.9 °F 29.84 in Calm     82% 0.00 in 0.00 W/m2
03:19 75.9 °F 69.6 °F 29.83 in Calm     81% 0.00 in 0.00 W/m2
03:24 75.9 °F 69.6 °F 29.84 in Calm     81% 0.00 in 0.00 W/m2
03:29 75.9 °F 69.6 °F 29.83 in Calm     81% 0.00 in 0.00 W/m2
03:34 76.0 °F 69.4 °F 29.83 in Calm     80% 0.00 in 0.00 W/m2
03:39 76.0 °F 69.4 °F 29.83 in Calm     80% 0.00 in 0.00 W/m2
03:44 76.1 °F 69.1 °F 29.83 in Calm     79% 0.00 in 0.00 W/m2
03:49 76.1 °F 69.1 °F 29.83 in Calm     79% 0.00 in 0.00 W/m2
03:54 76.2 °F 69.2 °F 29.83 in Calm     79% 0.00 in 0.00 W/m2
03:59 76.2 °F 69.2 °F 29.82 in Calm     79% 0.00 in 0.00 W/m2
04:04 76.2 °F 69.2 °F 29.82 in Calm     79% 0.00 in 0.00 W/m2
04:09 76.2 °F 69.2 °F 29.82 in Calm     79% 0.00 in 0.00 W/m2
04:14 76.2 °F 69.2 °F 29.82 in Calm     79% 0.00 in 0.00 W/m2
04:19 76.2 °F 69.2 °F 29.82 in Calm     79% 0.00 in 0.00 W/m2
04:24 76.2 °F 69.2 °F 29.82 in Calm     79% 0.00 in 0.00 W/m2
04:29 76.2 °F 69.2 °F 29.82 in Calm     79% 0.00 in 0.00 W/m2
04:34 76.2 °F 69.2 °F 29.82 in Calm     79% 0.00 in 0.00 W/m2
04:39 76.2 °F 68.8 °F 29.82 in Calm     78% 0.00 in 0.00 W/m2
04:44 76.2 °F 69.2 °F 29.82 in Calm     79% 0.00 in 0.00 W/m2
04:49 76.2 °F 68.8 °F 29.82 in Calm     78% 0.00 in 0.00 W/m2
04:54 76.1 °F 68.7 °F 29.82 in Calm     78% 0.00 in 0.00 W/m2
04:59 76.1 °F 69.5 °F 29.82 in Calm     80% 0.00 in 0.00 W/m2
05:04 76.1 °F 69.5 °F 29.82 in Calm     80% 0.00 in 0.00 W/m2
05:09 76.0 °F 69.4 °F 29.82 in Calm     80% 0.00 in 0.00 W/m2
05:14 75.8 °F 69.2 °F 29.82 in Calm     80% 0.00 in 0.00 W/m2
05:19 75.7 °F 69.1 °F 29.82 in Calm     80% 0.00 in 0.00 W/m2
05:24 75.4 °F 69.2 °F 29.82 in Calm     81% 0.00 in 0.00 W/m2
05:29 75.1 °F 68.9 °F 29.82 in Calm     81% 0.00 in 0.00 W/m2
05:34 74.9 °F 69.0 °F 29.82 in Calm     82% 0.00 in 0.00 W/m2
05:39 74.7 °F 68.8 °F 29.82 in Calm     82% 0.00 in 0.00 W/m2
05:44 74.4 °F 68.9 °F 29.82 in Calm     83% 0.00 in 0.00 W/m2
05:49 74.0 °F 68.9 °F 29.82 in Calm     84% 0.00 in 0.00 W/m2
05:54 73.7 °F 68.6 °F 29.82 in Calm     84% 0.00 in 0.00 W/m2
05:59 73.4 °F 68.6 °F 29.82 in Calm     85% 0.00 in 0.00 W/m2
06:04 73.2 °F 68.4 °F 29.82 in Calm     85% 0.00 in 0.00 W/m2
06:09 73.0 °F 68.2 °F 29.82 in Calm     85% 0.00 in 0.00 W/m2
06:14 72.8 °F 68.4 °F 29.83 in Calm     86% 0.00 in 0.00 W/m2
06:19 72.6 °F 68.5 °F 29.83 in Calm     87% 0.00 in 0.00 W/m2
06:24 72.5 °F 68.4 °F 29.83 in Calm     87% 0.00 in 0.00 W/m2
06:29 72.4 °F 68.3 °F 29.83 in Calm     87% 0.00 in 0.00 W/m2
06:34 72.3 °F 68.2 °F 29.83 in Calm     87% 0.00 in 5.00 W/m2
06:39 72.2 °F 68.4 °F 29.83 in Calm     88% 0.00 in 11.00 W/m2
06:44 72.1 °F 68.3 °F 29.83 in Calm     88% 0.00 in 18.00 W/m2
06:49 72.1 °F 68.7 °F 29.84 in Calm     89% 0.00 in 28.00 W/m2
06:54 72.1 °F 68.7 °F 29.83 in Calm     89% 0.00 in 28.00 W/m2
06:59 72.0 °F 68.6 °F 29.83 in Calm     89% 0.00 in 37.00 W/m2
07:04 72.0 °F 68.9 °F 29.83 in Calm     90% 0.00 in 46.00 W/m2
07:09 72.0 °F 68.9 °F 29.83 in Calm     90% 0.00 in 47.00 W/m2
07:14 72.1 °F 69.0 °F 29.83 in Calm     90% 0.00 in 39.00 W/m2
07:19 72.2 °F 69.1 °F 29.83 in Calm     90% 0.00 in 37.00 W/m2
07:24 72.2 °F 69.1 °F 29.84 in Calm     90% 0.00 in 44.00 W/m2
07:29 72.3 °F 69.2 °F 29.84 in Calm     90% 0.00 in 39.00 W/m2
07:34 72.5 °F 69.4 °F 29.84 in Calm     90% 0.00 in 44.00 W/m2
07:39 72.7 °F 69.6 °F 29.84 in Calm     90% 0.00 in 69.00 W/m2
07:44 72.8 °F 69.7 °F 29.84 in Calm     90% 0.00 in 77.00 W/m2
07:49 72.8 °F 69.4 °F 29.84 in Calm     89% 0.00 in 102.00 W/m2
Soleil - Laurel Canyon
Compliments of Weather Underground - 2 mb